Powrót do katalogu

CP4

AktywnyNaukaSSO
NORAD 31132·PAYLOAD·🇺🇸 United States

Wystrzelony Apr 17, 2007 z Baikonur Cosmodrome

Loading…

Następne Przeloty (najbliższe 24 godziny)

TLE

ŚwieżeSource: Space-Track

Epoka: Sep 14, 2026, 10:20 UTC

1 31132U 07012Q   26257.43110356  .00000922  00000-0  16865-3 0  9997
2 31132  98.4463 244.9052 0072041  45.1560 315.5466 14.66783768 33436

Śledź CP4 w czasie rzeczywistym z AllMySat

Download on the App Store